Regional Weather Roundup
Issued by NWS

Home | Current Version | Previous Version | Text Only | Print | Product List | Glossary Off
Versions: 1 2 3 4 5 6 7 8 9 10 11 12 13 14 15 16 17 18 19 20 21 22 23 24 25 26 27 28 29 30 31 32 33 34 35 36 37 38 39 40 41 42 43 44 45 46 47 48 49 50

044
ASUS43 KMPX 240010
RWRMN
WEATHER ROUNDUP FOR MINNESOTA
NATIONAL WEATHER SERVICE TWIN CITIES/CHANHASSEN MN
600 PM CST THU FEB 23 2017


NOTE: "FAIR" INDICATES FEW OR NO CLOUDS BELOW 12,000 FEET WITH NO
SIGNIFICANT WEATHER AND/OR OBSTRUCTIONS TO VISIBILITY. N/A MEANS
CURRENT SKY AND/OR WEATHER CONDITIONS ARE NOT AVAILABLE.

MNZ060>063-068>070-240100-
   Twin Cities Metro

CITY           SKY/WX    TMP DP  RH WIND       PRES   REMARKS
TWIN CITIES    CLOUDY    32  22  66 N15       29.92S WCI  22
6HR MIN TEMP:  31; 6HR MAX TEMP:  39;

ST PAUL        CLOUDY    32  24  72 N8        29.94R WCI  25
CRYSTAL        CLOUDY    30  21  69 N10       29.92R WCI  21
BLAINE         CLOUDY    32  25  74 N13       29.93R WCI  22
LAKEVILLE      CLOUDY    30  25  80 N9        29.91R WCI  22
EDEN PRAIRIE   CLOUDY    31  22  69 N9        29.91R WCI  23
6HR MIN TEMP:  31; 6HR MAX TEMP:  39;

SOUTH ST PAUL  CLOUDY    33  24  70 N9        29.92R WCI  25
LAKE ELMO      MOCLDY    32  27  80 N9        29.92S WCI  24
$$
MNZ001>005-007-008-013>017-022>024-027-028-240100-
   Northwest Minnesota

CITY           SKY/WX    TMP DP  RH WIND       PRES   REMARKS
BEMIDJI        CLOUDY    24  15  70 NW12      30.01R WCI  12
HALLOCK        MOCLDY    23  16  74 N12       30.13R WCI  12
ROSEAU         CLEAR     19  10  68 N13       30.09R WCI   7
WARROAD        CLOUDY    19  10  68 NW17      30.08R WCI   4
THIEF RVR FALL CLOUDY    20  12  71 N12       30.10R WCI   8
CROOKSTON      CLOUDY    23  14  68 NE14      30.12R WCI  11
FOSSTON        CLOUDY    21  18  86 N16       30.06R WCI   7
DETROIT LAKES  CLOUDY    27  21  80 N8        30.03R WCI  18
MOORHEAD       CLOUDY    27  19  74 N16G26    30.08R WCI  14
PARK RAPIDS    CLOUDY    26  16  65 N12       29.99R WCI  16
MAHNOMEN       CLOUDY    24  18  77 N17       30.04R WCI  11
$$
MNZ006-009>011-018-025>026-240100-
   North Central Minnesota

CITY           SKY/WX    TMP DP  RH WIND       PRES   REMARKS
BAUDETTE       CLEAR     20   8  60 NW13      30.05R WCI   7
FLAG ISLAND    CLEAR     19   7  58 NW18      30.06R WCI   4
INTL FALLS     CLEAR     22   9  57 NW9       30.02R WCI  12
6HR MIN TEMP:  22; 6HR MAX TEMP:  27;

WASKISH        CLOUDY    23  14  68 NW9       30.05R WCI  13
BIG FORK       CLOUDY    25  10  54 NW6       30.00R WCI  18
LONGVILLE      CLOUDY    25  19  80 NW6       30.00R WCI  18
GRAND RAPIDS   CLOUDY    24  17  74 NW10      30.00R WCI  14
CRANE LAKE     PTCLDY    23  10  58 N5        30.01R WCI  17
ORR            PTCLDY    21  10  63 CALM      29.96S
COOK           CLOUDY    25  10  54 NW5       29.98S WCI  19
WALKER         FAIR      25  16  68 N7        30.00R WCI  17
$$
MNZ012-019>021-037-240100-
   Northeast Minnesota

CITY           SKY/WX    TMP DP  RH WIND       PRES   REMARKS
DULUTH         PTCLDY    26  22  84 NW10      29.94R WCI  16
6HR MIN TEMP:  26; 6HR MAX TEMP:  30;

ELY            PTCLDY    25  10  54 N5        29.96R WCI  19
HIBBING        PTCLDY    24  15  68 N8        29.96S WCI  15
EVELETH        MOCLDY    25  10  53 N6        29.97S WCI  18
DULUTH HARBOR  MOCLDY    30  25  80 CALM      29.99R
TWO HARBORS    MOCLDY    30  23  74 NW5       29.93S WCI  25
SILVER BAY     PTCLDY    28  21  74 NW5       29.92F WCI  23
GRAND MARAIS     N/A     31  17  56 CALM      29.96R
G MARAIS ARPRT CLEAR     25   9  50 NW7       29.90R WCI  17
$$
MNZ029>031-032-039>041-046>048-054>057-064-240100-
   West Central Minnesota

CITY           SKY/WX    TMP DP  RH WIND       PRES   REMARKS
FERGUS FALLS   CLOUDY    27  19  74 N14G23    30.06R WCI  15
WHEATON        CLOUDY    28  21  74 N15       30.03S WCI  17
MORRIS         CLOUDY    30  25  80 N14       29.97R WCI  20
ALEXANDRIA     CLOUDY    28  22  78 N15       29.96R WCI  16
ELBOW LAKE     MOCLDY    28  23  79 N15       29.99S WCI  17
WADENA         MOCLDY    27  19  74 N9        29.98R WCI  17
GLENWOOD       CLOUDY    28  23  80 N12       29.96R WCI  18
APPLETON       CLOUDY    30  25  80 N13       29.96R WCI  20
BENSON         CLOUDY    32  21  64 NE15G22   29.97R WCI  22
ORTONVILLE     MOCLDY    28  23  80 N21       29.97R WCI  15
MADISON        CLOUDY    34  27  75 N16G22    29.96R WCI  23
WILLMAR        FAIR      32  27  80 NE15      29.94R WCI  22
$$
MNZ033>034-036-042>043-049>051-058-059-240100-
   Central Minnesota

CITY           SKY/WX    TMP DP  RH WIND       PRES   REMARKS
ST CLOUD       CLOUDY    29  23  78 N9        29.95R WCI  20
6HR MIN TEMP:  27; 6HR MAX TEMP:  30;

SAUK CENTRE    CLOUDY    29  21  72 N10       29.96R WCI  20
PAYNESVILLE    CLOUDY    30  24  77 NE13G18   29.94S WCI  20
AITKIN         CLOUDY    28  21  74 N9        29.96S WCI  20
PINE RIVER     PTCLDY    27  19  74 N8        30.02R WCI  18
BRAINERD       CLOUDY    26  20  77 N12       29.98R WCI  16
STAPLES        CLOUDY    27  19  74 N8        29.98R WCI  18
LONG PRAIRIE   MOCLDY    28  21  74 NW12      29.97R WCI  18
LITTLE FALLS   CLOUDY    28  21  74 N5        29.98R WCI  23
LITCHFIELD     CLOUDY    30  25  80 NE10G17   29.94R WCI  21
BUFFALO        CLOUDY    30  23  77 N9        29.95R WCI  21
MAPLE LAKE     CLOUDY    30  25  80 N10       29.94S WCI  21
HUTCHINSON     CLOUDY    31  25  80 N14G20    29.92S WCI  21
$$
MNZ037-044-045-052-053-240100-
   East Central Minnesota

CITY           SKY/WX    TMP DP  RH WIND       PRES   REMARKS
PRINCETON      CLOUDY    30  25  80 N7        29.96R WCI  23
MORA           CLOUDY    28  23  80 N6        29.98R WCI  22
CAMBRIDGE      CLOUDY    30  21  69 N5        29.94R WCI  25
RUSH CITY      CLOUDY    28  23  80 N6        29.96S WCI  22
MOOSE LAKE     CLOUDY    28  23  80 N8        29.96R WCI  20
HINCKLEY       MOCLDY    30  27  86 N9        29.96R WCI  22
CLOQUET        MOCLDY    27  21  80 NW8       29.96R WCI  18
MCGREGOR       CLOUDY    27  21  80 N7        29.98R WCI  19
$$
MNZ071>073-080-081-089-090-097-098-240100-
   Southwest Minnesota

CITY           SKY/WX    TMP DP  RH WIND       PRES   REMARKS
MONTEVIDEO     CLOUDY    30  27  86 NE12      29.96R WCI  21
GRANITE FALLS  CLOUDY    32  27  81 N9        29.94S WCI  24
CANBY          CLOUDY    31  26  81 NE15G21   29.95R WCI  20
MARSHALL       CLOUDY    30  26  85 N17G23    29.90F WCI  18
REDWOOD FALLS  CLOUDY    31  23  72 VRB6      29.91R WCI  25
OLIVIA         MOCLDY    32  27  80 NE15G22   29.91S WCI  22
PIPESTONE      LGT SNOW  28  23  80 NE26      29.79F WCI  13
WINDOM         MIX PCPN  28  27  93 N21G26    29.82F WCI  15
WORTHINGTON    MIX PCPN  28  26  92 N23G33    29.77F WCI  14
JACKSON        LGT SNOW  30  28  93 NE21G31   29.79F VSB 1   WCI  17
TRACY          FLURRIES  31  28  88 N21       29.87F WCI  18
SLAYTON        LGT SNOW  28  26  92 N20G28    29.82F WCI  14
$$
MNZ065>067-074>077-082>085-091>093-240100-
   South Central Minnesota

CITY           SKY/WX    TMP DP  RH WIND       PRES   REMARKS
MANKATO        FLURRIES  31  26  82 NE16G22   29.88R WCI  20
NEW ULM        CLOUDY    28  25  86 N10G17    29.88S WCI  19
ST JAMES       FLURRIES  30  27  86 N16       29.87S WCI  19
FAIRMONT       LGT SNOW  30  28  93 NE22      29.79F FOG     WCI  17
GLENCOE        CLOUDY    31  27  85 N12G20    29.91R WCI  22
FARIBAULT      CLOUDY    34  27  75 N12G18    29.88R WCI  25
OWATONNA       FLURRIES  34  27  75 N21G28    29.84S WCI  22
WASECA         LGT SNOW  32  28  86 N18G25    29.86F VSB 3/4 WCI  20
ALBERT LEA     LGT SNOW  34  30  86 NE17      29.81F WCI  23
$$
MNZ078>079-086>088-094>096-240100-
   Southeast Minnesota

CITY           SKY/WX    TMP DP  RH WIND       PRES   REMARKS
ROCHESTER      LGT SNOW  35  30  82 NE20      29.81S WCI  24
6HR MIN TEMP:  35; 6HR MAX TEMP:  39; 6HR PCP: TRACE;

RED WING       CLOUDY    37  23  56 NE9       29.89R
STANTON        CLOUDY    34  28  77 N13       29.89R WCI  25
DODGE CENTER   LGT SNOW  34  28  80 N14       29.84R WCI  24
WINONA         CLOUDY    41  28  60 NE7       29.85R
AUSTIN         FLURRIES  36  28  75 NE12      29.81R
PRESTON        LGT RAIN  37  30  76 NE15      29.79F
$$
ABBREVIATIONS USED IN REMARKS
   TC - TEMPERATURES IN CELSIUS
  WCI - WIND CHILL INDEX
   HX - HEAT INDEX
  VSB - VISIBILITY
$$




USA.gov is the U.S. government's official web portal to all federal, state and local government web resources and services.